Fort Mitchell, AL

12:10 PM CST on December 09, 2016 (GMT -0600)
Lawson Army Air Field

Weather History for KLSF - December, 2012

Change the Weather History Date:

Friday, December 21, 2012

  Actual Average Record
Temperature  
Mean Temperature 43 °F -  
Max Temperature 52 °F 55 °F 78 °F (1998)
Min Temperature 34 °F 31 °F 14 °F (1996)
Degree Days  
Heating Degree Days 22    
Moisture  
Dew Point 20 °F    
Average Humidity 41    
Maximum Humidity 57    
Minimum Humidity 24    
Precipitation  
Precipitation 0.00 in - - ()
Sea Level Pressure  
Sea Level Pressure 30.14 in    
Wind  
Wind Speed 13 mph (WNW)    
Max Wind Speed 21 mph    
Max Gust Speed 31 mph    
Visibility 10 miles    
Events      
Averages and records for this station are not official NWS values.
T = Trace of Precipitation, MM = Missing Value Source: NWS Daily Summary

Daily Weather History Graph

Daily Weather History Graph

Search for Another Location

Airport or City:

Trip Planner

Search our weather history database for the weather conditions in past years. The results will help you decide how hot, cold, wet, or windy it might be!

Date:

Astronomy

Dec. 21, 2012 Rise Set
Actual Time 7:37 AM EST 5:39 PM EST
Civil Twilight 7:10 AM EST 6:06 PM EST
Nautical Twilight 6:39 AM EST 6:37 PM EST
Astronomical Twilight 6:09 AM EST 7:07 PM EST
Moon 1:13 PM EST (12/21) 1:37 AM EST (12/21)
Length of Visible Light 10h 56m
Length of Day
10h 01m
Waxing Gibbous, 64% of the Moon is Illuminated
Dec 21
Waxing Gibbous
Dec 28
Full
Jan 4
Last Quarter
Jan 11
New
Jan 18
First Quarter

Hourly Weather History & Observations

Time (EST) Temp. Windchill Dew Point Humidity Pressure Visibility Wind Dir Wind Speed Gust Speed Precip Events Conditions
12:55 AM 43.9 °F 36.8 °F 28.6 °F 55% 30.04 in 10.0 mi WNW 15.0 mph 25.3 mph N/A   Scattered Clouds
1:55 AM 42.6 °F 36.8 °F 28.4 °F 57% 30.04 in 10.0 mi West 10.4 mph - N/A   Partly Cloudy
2:55 AM 41.4 °F 35.2 °F 25.5 °F 53% 30.06 in 10.0 mi WNW 10.4 mph - N/A   Clear
3:55 AM 40.3 °F 31.9 °F 24.3 °F 53% 30.07 in 10.0 mi West 16.1 mph 20.7 mph N/A   Clear
4:55 AM 39.4 °F 31.1 °F 22.8 °F 52% 30.07 in 10.0 mi West 15.0 mph 25.3 mph N/A   Clear
5:55 AM 38.1 °F 30.2 °F 22.5 °F 53% 30.09 in 10.0 mi WNW 12.7 mph - N/A   Clear
6:55 AM 37.2 °F 30.0 °F 20.8 °F 52% 30.11 in 10.0 mi West 10.4 mph - N/A   Clear
7:55 AM 36.1 °F 28.7 °F 20.5 °F 53% 30.13 in 10.0 mi WNW 10.4 mph - N/A   Clear
8:55 AM 37.9 °F 29.2 °F 20.7 °F 50% 30.15 in 10.0 mi WNW 15.0 mph 21.9 mph N/A   Clear
9:55 AM 41.0 °F 32.2 °F 21.0 °F 45% 30.16 in 10.0 mi WNW 18.4 mph - N/A   Clear
10:55 AM 44.8 °F 36.6 °F 19.8 °F 37% 30.17 in 10.0 mi NW 20.7 mph 26.5 mph N/A   Clear
11:55 AM 47.7 °F - 19.8 °F 33% 30.16 in 10.0 mi NW 19.6 mph 28.8 mph N/A   Clear
12:55 PM 49.5 °F - 18.0 °F 29% 30.14 in 10.0 mi West 16.1 mph - N/A   Clear
1:55 PM 51.4 °F - 17.1 °F 26% 30.12 in 10.0 mi West 19.6 mph 31.1 mph N/A   Clear
2:48 PM 51.8 °F - 17.6 °F 26% 30.10 in 10.0 mi WNW 13.8 mph 28.8 mph N/A   Clear
2:55 PM 52.2 °F - 17.6 °F 26% 30.12 in 10.0 mi WNW 13.8 mph 23.0 mph N/A   Clear
3:55 PM 52.0 °F - 16.0 °F 24% 30.12 in 10.0 mi WNW 17.3 mph 24.2 mph N/A   Clear
4:55 PM 49.8 °F - 15.6 °F 26% 30.14 in 10.0 mi WNW 15.0 mph 23.0 mph N/A   Clear
5:55 PM 45.0 °F 38.9 °F 15.4 °F 31% 30.16 in 10.0 mi WNW 12.7 mph - N/A   Clear
6:55 PM 41.5 °F 39.6 °F 16.2 °F 36% 30.19 in 10.0 mi Variable 3.5 mph - N/A   Clear
7:55 PM 35.4 °F 32.6 °F 17.2 °F 48% 30.21 in 10.0 mi WNW 3.5 mph - N/A   Clear
8:55 PM 39.0 °F 32.8 °F 15.8 °F 39% 30.23 in 10.0 mi WNW 9.2 mph - N/A   Clear
9:55 PM 34.2 °F 27.5 °F 16.9 °F 49% 30.24 in 10.0 mi WNW 8.1 mph - N/A   Clear
10:55 PM 38.7 °F 32.4 °F 16.0 °F 40% 30.24 in 10.0 mi WNW 9.2 mph - N/A   Clear
11:55 PM 37.9 °F 32.1 °F 15.8 °F 41% 30.25 in 10.0 mi WNW 8.1 mph - N/A   Clear